Weather in Nain

Canada     56°32′43″N   61°41′43″W
temp.,
°C
wind,
m/s
gust,
m/s
humid.,
%
clouds,
%
prec.,
mm/h
press.,
hPa
HPBL,
m
1 august, sun
sun100:00+8s1192100 0.0 99969
03:00+8nw1291100 0.0 99866
06:00+7nw2293100 0.0 99813
09:00+10wnw4580100 0.0 997399
12:00+12wnw4569100 0.0 997593
15:00+14w676461 0.0 996935
18:00+14wnw675993 0.0 996813
21:00+10wnw9137248 0.0 998483
2 august, mon
mon200:00+9w7118180 0.0 998333
03:00+9w697661 0.0 999492
06:00+7w8117932 0.0 1000440
09:00+10w787297 0.0 1001448
12:00+9w5781100 0.3 1003344
15:00+9wnw5686100 1.7 1003375
18:00+9w3689100 1.1 1004355
21:00+9w2387100 1.3 100455
3 august, tue
tue300:00+9w2287100 0.0 100421
03:00+8w2289100 0.0 100424
06:00+8wsw2289100 0.0 100424
09:00+10wsw1281100 0.0 1004211
12:00+12sw1274100 0.0 1004354
15:00+15e226196 0.0 1003671
18:00+11se1287100 0.6 100367
21:00+10se1191100 1.2 100455
4 august, wed
wed400:00+9nw1192100 0.4 100433
03:00+10wsw119299 0.4 100517
06:00+10wsw2289100 0.0 100639
09:00+14wsw6975100 0.0 1006405
12:00+15w91166100 0.0 1007941
15:00+13wsw101367100 0.0 1008652
18:00+15wsw71367100 0.0 1008968
21:00+15sw41066100 0.0 1007212
5 august, thu
thu500:00+15sw51067100 0.0 1006175
03:00+13sw3375100 0.0 100518
06:00+13ssw3379100 0.0 100318
09:00+16sw91467100 0.2 1001743
12:00+14wsw61189100 2.2 1000315
15:00+17w81070100 2.4 1001853
18:00+15w7948100 0.0 1004960
21:00+13wsw345981 0.0 100649